Weather in Privetnoe

Russia / Republic of Crimea     44°49′19″N   34°40′39″E
temp.,
°C
wind,
m/s
gust,
m/s
humid.,
%
clouds,
%
prec.,
mm/h
press.,
hPa
HPBL,
m
7 august, sun
sun700:00+25n68680 0.0 1008190
03:00+25nne57640 0.0 1008137
06:00+25nne610590 0.0 1009311
09:00+28ne913470 0.0 1009750
12:00+29ene1115460 0.0 10101092
15:00+29e913460 0.0 10091135
18:00+29ne913440 0.0 1010826
21:00+25n79560 0.0 1010142
8 august, mon
mon800:00+25nnw78560 0.0 1011116
03:00+25n88530 0.0 1011111
06:00+25n79560 0.0 1011142
09:00+29ne68460 0.0 1012394
12:00+29e812470 0.0 10131097
15:00+30e69420 0.0 10121116
18:00+30nne68390 0.0 1012542
21:00+26n78460 0.0 101286
9 august, tue
tue900:00+26nne710480 0.0 1012123
03:00+26nne68500 0.0 1012119
06:00+25nne710480 0.0 1012201
09:00+29ne1116420 0.0 1012998
12:00+29ene1317410 0.0 10121170
15:00+30e913410 0.0 1011995
18:00+30nne68446 0.0 1010382
21:00+26n794899 0.0 100999
10 august, wed
wed1000:00+26n785621 0.0 100995
03:00+27nne794549 0.0 1008121
06:00+26nne811515 0.0 1008194
09:00+29ne11164214 0.0 1008865
12:00+29e1014460 0.0 10081020
15:00+30ene7104295 0.0 10071017
18:00+30nne81139100 0.0 1006351
21:00+28n9144596 0.0 1006250
11 august, thu
thu1100:00+26n5656100 0.1 100584
03:00+27n566413 0.1 100461
06:00+26n456190 0.1 100588
09:00+27nne575943 0.1 1006350
12:00+27e346660 0.1 1007468
15:00+27e34676 0.1 1007417
18:00+26e23745 0.6 1008262
21:00+25n12770 1.1 100899